Theta_e
303 304 303 303 303 303 303 304 304 304 303 304 304 304 304 304 304 305 305 303 302 302 302 302 301 301 300 300 301 301 301 301 301 302 301 303 303 303 304 304 304 304 303 303 303 303 302 303 304 305 306 306 306 307 306 306 307 306 312 313 312 314 312 312 312 310 310 310 307 304 305 307 307 306 305 306 305 305 305 305 305 305 305 305 304 304 304 304
304 304 304 303 303 303 303 303 304 303 303 303 304 304 304 304 303 303 303 302 301 302 302 301 301 301 301 301 301 301 301 301 302 302 302 303 304 303 304 304 304 304 303 303 303 302 303 303 304 306 307 306 306 307 306 306 306 308 311 311 315 316 309 308 310 308 307 307 306 304 305 306 306 305 305 306 305 304 304 305 305 305 305 305 305 304 304 304
304 304 304 304 303 303 303 303 303 303 303 303 303 303 304 304 303 302 303 302 301 301 301 301 301 301 301 301 301 301 301 302 302 302 303 303 303 303 303 304 304 303 302 302 302 302 303 303 305 307 307 306 307 307 307 307 306 308 309 313 320 314 305 305 306 306 306 306 305 304 305 304 305 305 304 305 304 304 304 304 304 304 305 304 305 304 304 304
304 303 303 303 303 303 303 303 303 303 303 302 302 303 303 303 304 303 304 304 302 301 301 301 300 301 301 301 301 301 302 303 304 304 304 304 304 304 303 304 303 302 302 302 302 303 303 305 307 308 307 306 306 307 308 308 307 307 309 315 316 306 305 306 305 306 306 305 305 304 305 305 305 304 304 304 305 305 304 304 304 304 304 304 304 304 304 304
303 304 303 302 303 303 303 303 303 303 303 302 302 302 303 303 303 304 304 304 303 302 302 301 301 301 300 301 300 302 304 305 307 307 306 305 305 303 303 303 302 302 302 302 302 303 304 306 307 308 308 307 307 308 308 307 307 307 308 310 308 303 305 306 304 306 305 305 305 303 305 305 304 304 303 304 304 305 304 304 304 303 304 303 304 304 304 304
303 304 303 303 303 303 303 303 302 302 302 302 302 302 303 303 303 303 303 304 303 302 303 302 301 301 300 301 300 301 304 305 308 308 306 305 304 304 303 302 302 302 301 302 303 303 305 306 308 309 307 307 307 308 308 307 306 308 308 304 304 304 304 305 304 305 304 304 303 303 304 304 303 303 303 303 304 304 304 304 303 303 304 303 303 303 304 304
303 304 303 303 303 303 303 302 302 302 302 302 303 303 302 303 303 303 303 303 303 303 303 302 301 301 300 301 301 301 302 303 306 307 306 305 304 304 303 303 302 302 302 302 302 304 306 307 308 307 307 308 306 306 307 306 305 308 309 305 304 305 304 305 305 305 305 304 303 303 303 302 303 305 303 303 303 303 304 304 303 304 304 303 304 304 304 304
304 304 303 302 303 303 303 302 301 302 302 302 303 303 302 303 303 303 303 303 303 303 303 303 301 301 300 301 302 303 302 302 303 305 306 305 304 303 303 303 302 302 302 302 302 303 304 306 307 306 308 308 305 305 305 305 306 307 309 306 304 305 305 306 305 305 306 305 304 302 301 302 302 303 303 302 304 304 304 304 304 304 304 304 304 304 304 304
304 304 303 302 303 303 302 302 301 301 302 302 303 303 302 303 303 303 302 303 303 303 303 303 302 302 300 300 303 304 303 302 302 303 304 304 304 304 303 303 302 302 302 302 302 303 304 305 306 306 308 306 303 305 304 305 307 306 306 304 303 303 304 304 304 305 304 304 303 301 301 301 301 302 302 303 304 305 305 305 305 304 304 304 304 304 304 305
304 304 303 302 302 303 302 302 302 301 302 302 302 302 303 303 302 302 302 303 303 302 303 303 303 304 301 301 304 305 304 305 304 304 305 305 306 305 304 302 302 302 302 302 302 303 304 304 305 305 307 305 303 304 303 304 306 303 303 302 302 302 302 302 302 302 302 302 301 302 303 301 301 302 303 305 305 306 305 305 305 304 304 304 304 304 304 304
304 304 303 302 302 303 303 303 302 302 302 302 302 302 302 303 302 302 301 302 303 303 303 303 303 303 302 302 304 305 305 305 304 305 305 306 306 304 303 302 302 302 302 302 302 302 303 303 304 304 306 305 303 303 302 303 304 303 303 304 304 301 302 302 302 302 302 303 302 302 304 302 302 303 303 305 305 305 305 305 304 304 304 303 304 304 304 304
304 304 304 303 303 303 303 303 302 302 302 302 302 302 302 302 302 301 301 302 302 302 303 303 303 303 302 302 303 303 304 304 304 304 304 305 304 303 302 302 302 301 301 302 302 302 302 303 303 304 305 304 304 304 303 304 304 304 303 305 307 304 306 305 303 303 302 304 303 303 306 306 305 304 305 306 305 305 305 305 304 304 304 304 304 304 304 304
305 305 305 304 304 304 303 303 302 302 302 302 302 302 302 302 302 301 302 302 302 302 302 303 304 303 302 302 302 301 302 303 303 303 303 304 303 303 302 302 302 301 302 302 302 302 301 301 301 303 304 303 305 305 304 303 303 305 303 304 306 307 311 306 302 303 302 304 304 304 307 308 309 306 305 306 305 304 304 304 304 303 304 304 304 304 303 303
306 305 305 305 305 304 303 303 303 302 302 301 301 301 302 302 301 301 302 302 301 301 302 303 304 303 302 303 302 302 302 301 302 302 303 303 303 303 302 302 301 301 302 302 303 302 301 300 300 303 303 302 303 303 307 306 304 306 304 305 306 307 314 308 302 304 304 305 304 305 307 306 309 306 304 305 304 303 303 303 303 303 303 303 303 303 302 303
307 307 306 305 305 304 304 304 304 303 303 302 301 301 301 301 302 301 302 302 301 302 303 303 304 303 302 302 300 302 303 302 303 302 303 303 303 303 302 302 301 301 302 301 301 301 300 299 299 302 304 302 302 306 313 311 308 308 306 309 308 305 312 310 303 303 306 307 303 305 307 305 306 305 303 304 303 303 302 303 303 303 303 302 302 302 302 303
307 307 307 306 306 305 305 304 304 304 303 303 301 301 300 300 301 301 301 301 301 302 303 302 303 302 302 303 301 303 303 303 303 303 304 304 304 303 302 302 301 301 301 301 300 300 299 298 300 304 304 304 306 312 315 309 309 309 306 310 311 307 308 307 304 302 304 307 303 304 308 306 305 304 303 303 302 303 302 302 302 302 302 301 301 301 301 303
308 308 307 307 306 306 306 305 305 304 304 303 302 302 300 298 300 301 301 302 301 301 302 303 303 302 304 304 303 304 304 303 304 304 305 304 303 303 302 302 301 301 301 300 299 298 298 300 302 304 303 304 307 311 310 305 308 310 305 307 310 308 306 307 308 303 301 306 305 305 305 304 305 303 302 303 302 302 301 301 302 301 301 300 301 301 302 303
309 309 308 308 307 306 306 305 305 304 303 303 303 302 300 298 299 300 301 301 300 300 301 304 304 304 305 304 303 305 304 304 304 304 304 304 303 303 303 302 301 301 300 299 299 299 300 301 303 304 304 303 306 307 305 306 310 312 309 309 309 308 305 306 308 304 302 306 305 305 304 303 303 303 302 302 302 301 301 300 300 300 300 301 301 302 303 303
310 310 309 309 308 307 306 306 305 304 303 303 303 302 300 299 300 300 300 300 300 302 303 303 303 304 305 304 303 304 305 305 305 304 304 303 303 304 304 302 300 300 300 301 302 301 302 304 304 305 305 304 305 306 304 310 314 314 313 311 311 309 306 306 308 305 302 304 305 304 304 303 303 303 302 301 301 300 300 300 300 300 300 302 303 303 304 303
311 310 309 309 309 308 307 306 306 305 304 303 303 302 301 301 303 304 302 300 300 302 303 303 303 303 304 304 303 304 304 304 304 304 304 303 303 304 303 301 301 301 302 304 305 303 302 306 306 305 305 304 305 304 305 310 312 311 310 309 309 308 306 305 307 305 300 303 307 304 304 303 302 302 301 300 301 300 300 299 299 300 301 303 304 304 304 303
310 310 310 309 309 308 307 307 306 305 304 303 303 302 301 302 305 306 303 302 302 301 301 302 302 302 303 305 305 304 304 304 304 304 304 303 303 304 303 303 303 303 303 303 304 303 302 304 305 304 305 304 304 304 304 306 308 308 307 306 306 305 305 303 302 304 302 302 306 305 303 303 302 302 302 301 301 301 300 300 299 301 302 304 304 303 303 303
309 310 310 310 309 309 308 307 306 305 304 303 303 302 301 301 303 304 302 302 303 302 302 302 302 302 302 303 304 305 304 304 304 304 303 303 303 303 302 303 305 304 303 303 303 305 304 304 304 303 303 303 304 304 304 304 305 307 306 305 306 305 306 305 302 303 304 303 305 305 302 303 303 302 302 301 300 300 299 300 301 302 303 304 304 304 302 302
308 309 310 310 310 309 308 307 306 305 305 304 303 303 302 300 302 303 302 302 303 302 301 302 302 302 302 303 303 304 304 304 305 304 302 302 303 303 302 303 304 304 304 305 306 306 307 307 304 301 302 304 305 304 304 304 304 306 307 305 305 305 305 307 306 304 304 302 303 304 302 302 303 304 308 303 296 299 301 301 302 302 304 304 304 303 302 302
307 307 309 310 310 309 309 308 306 305 305 304 303 303 300 300 302 302 301 301 302 302 301 301 301 301 302 303 303 304 304 304 304 304 303 302 302 302 302 302 303 303 303 304 305 305 307 306 302 300 302 305 305 304 304 304 304 305 305 304 303 304 303 305 306 303 305 304 301 302 304 308 311 313 321 311 298 300 301 300 303 303 304 304 304 303 302 303
306 306 307 309 309 309 309 307 306 306 305 304 304 303 300 300 302 302 301 302 303 303 302 302 301 300 301 302 304 305 305 305 304 304 303 302 302 302 302 302 302 303 302 303 304 304 305 303 301 302 302 303 305 305 304 304 304 304 306 305 303 305 304 304 305 303 307 308 302 301 305 314 318 313 315 311 306 306 301 300 303 302 304 304 303 303 302 303
304 305 306 307 308 309 308 307 306 306 305 305 304 302 301 300 301 302 302 303 306 305 303 304 303 303 302 303 304 304 305 305 305 305 304 302 302 303 303 302 302 303 302 302 303 304 305 302 302 304 302 303 305 304 304 303 303 304 305 304 302 305 306 305 305 303 307 308 302 301 304 307 308 306 307 307 307 310 306 308 306 298 302 305 302 303 303 303
302 304 304 305 307 308 308 306 306 305 305 305 304 302 302 301 301 302 302 306 308 306 305 305 304 304 303 303 304 304 305 305 305 305 304 303 303 303 305 304 302 303 302 302 303 304 305 303 302 303 302 302 303 303 303 302 303 305 304 303 303 304 305 306 306 303 305 304 300 301 302 303 304 305 307 304 306 314 314 318 314 300 302 305 303 303 303 303
298 300 301 304 306 306 307 307 306 306 306 306 304 302 302 301 300 301 304 309 311 308 307 305 303 304 304 304 304 304 303 304 305 305 303 303 303 303 305 304 303 305 304 303 304 303 303 306 304 302 302 301 302 304 303 301 304 305 302 302 303 304 305 306 306 304 303 302 303 305 302 302 308 311 309 303 305 313 317 321 321 307 303 304 304 303 303 303
295 296 298 301 304 305 306 307 307 307 307 305 304 302 301 300 300 302 305 309 309 308 307 306 304 304 304 303 303 302 302 303 304 304 302 303 303 303 305 304 302 305 303 301 305 304 302 303 302 302 302 302 304 305 302 302 304 302 301 302 303 303 304 304 304 305 304 302 304 307 305 303 309 316 315 307 306 313 318 321 321 308 302 304 304 303 303 303
294 295 296 298 301 304 305 306 307 307 306 305 303 301 301 300 301 304 306 309 310 308 305 305 306 303 303 303 302 302 301 301 301 302 302 303 303 302 303 303 301 305 305 302 304 303 299 299 300 302 302 302 305 303 299 302 303 299 302 305 304 303 303 303 304 303 304 307 305 303 303 302 306 316 319 311 311 318 319 317 313 305 302 303 304 304 304 304
293 294 295 296 298 300 302 303 305 306 306 305 303 300 300 301 302 305 307 308 310 309 305 305 305 302 303 304 303 301 301 300 300 302 302 302 303 302 303 303 302 304 306 305 304 302 300 300 301 301 301 300 304 302 298 299 299 300 305 306 304 305 304 303 303 302 305 312 307 298 298 301 304 316 323 314 309 311 311 312 313 309 304 303 304 305 304 304
292 293 294 295 296 297 299 301 302 304 305 305 303 300 300 301 302 305 307 307 309 309 306 305 303 302 303 304 303 301 301 301 300 302 303 302 303 303 303 304 304 305 306 304 304 304 303 303 301 301 300 300 304 304 301 300 300 302 306 305 304 305 304 304 305 305 306 307 301 296 299 301 302 308 313 308 306 307 304 304 308 307 303 302 304 305 304 304
292 293 293 294 295 296 297 298 300 302 304 305 302 300 301 302 304 304 305 308 309 306 306 305 303 302 302 304 303 300 301 302 300 301 303 302 303 303 303 304 303 305 307 305 303 304 305 303 301 302 301 301 303 304 303 302 301 302 303 304 305 304 303 307 307 305 306 304 297 296 299 302 305 307 306 304 303 304 301 299 300 301 301 303 305 305 305 305
292 292 293 293 294 295 296 297 298 300 303 303 301 300 301 303 306 306 305 306 306 303 305 305 303 302 302 303 302 300 301 301 300 302 302 302 303 303 303 303 302 303 306 304 303 304 305 304 303 303 302 302 301 302 303 302 300 301 303 303 305 307 307 309 310 309 311 307 299 297 301 306 314 313 306 303 301 299 299 300 300 300 302 304 304 304 305 305
292 292 292 292 293 294 294 295 296 299 302 302 300 301 302 303 305 307 306 305 305 305 305 304 302 303 303 303 301 300 302 302 300 301 302 302 303 303 302 303 301 302 304 304 303 303 304 305 304 301 300 301 301 301 302 302 301 301 302 302 303 307 308 307 307 306 307 305 302 300 303 307 311 308 303 302 302 300 299 299 298 299 302 304 303 304 305 305
292 292 292 292 292 292 293 294 295 298 301 300 300 301 302 304 305 306 306 305 306 306 304 303 303 304 304 303 302 300 302 302 301 301 302 302 302 302 302 302 302 301 302 303 304 303 304 304 300 299 300 300 301 301 301 303 303 301 301 302 302 302 305 305 303 301 301 304 305 304 305 306 306 306 306 305 304 303 301 301 300 300 302 303 303 304 304 305
292 292 292 292 292 292 292 293 294 298 300 300 301 302 302 304 305 305 306 305 305 305 304 305 305 305 305 305 303 301 301 302 301 301 302 302 302 302 301 302 302 301 302 303 304 306 307 304 298 298 302 299 298 300 301 300 301 302 302 303 300 300 304 306 305 305 304 305 307 305 304 306 307 310 312 308 306 306 305 303 302 301 301 301 303 304 304 305
292 292 292 292 292 292 292 293 293 296 300 300 300 302 303 303 304 304 304 304 304 304 305 306 305 305 305 305 304 302 302 303 302 301 302 302 303 303 301 301 302 301 301 302 303 306 308 306 300 297 300 300 298 300 303 300 298 301 303 302 302 303 305 304 304 306 306 307 311 307 303 304 306 310 313 309 309 310 307 303 303 304 302 300 302 304 304 305
292 292 292 292 292 291 292 294 294 296 300 300 300 302 303 303 303 303 303 302 304 304 305 305 305 305 305 304 304 302 302 304 303 301 302 303 304 303 302 302 302 301 301 301 303 305 305 306 303 297 298 301 300 301 303 302 300 300 301 300 302 305 306 304 304 306 307 307 311 309 306 307 307 307 311 309 309 311 308 305 304 304 302 300 302 304 304 305
292 292 292 292 291 291 292 294 296 297 300 301 300 302 304 304 303 303 302 303 304 304 304 305 305 305 305 304 304 302 302 304 303 302 303 303 304 304 302 302 303 302 301 301 303 304 305 306 304 298 297 300 301 301 302 302 302 301 301 302 302 303 304 305 304 305 307 308 310 310 309 311 308 305 308 308 308 308 308 307 306 302 300 301 303 305 304 305
291 291 291 292 292 292 293 295 297 298 299 301 301 301 303 304 303 303 302 302 303 304 304 305 305 305 305 304 303 303 302 303 303 302 303 303 304 305 303 302 302 302 301 301 302 303 304 305 304 299 298 300 300 301 301 302 302 302 302 302 302 302 304 306 305 304 304 305 309 309 308 309 309 305 306 308 308 307 306 306 306 301 299 301 303 305 305 305
291 291 291 292 292 292 292 293 295 297 298 300 301 301 302 303 304 303 302 301 302 303 303 304 305 305 305 304 304 303 302 303 303 302 303 303 304 306 303 301 301 301 302 302 302 303 304 305 304 300 299 300 301 301 302 302 301 301 302 302 302 303 304 307 307 305 304 303 304 305 305 307 308 307 307 308 308 305 301 302 303 300 298 301 304 304 305 305
291 291 291 291 291 291 291 291 293 294 295 297 299 300 301 302 303 303 303 302 301 302 303 303 303 304 304 304 304 303 303 304 303 302 303 303 303 304 302 300 301 302 302 303 302 303 304 305 305 303 301 302 302 301 302 302 300 300 301 301 301 302 303 305 305 304 306 306 304 305 305 305 307 308 307 306 304 302 299 298 300 299 298 301 304 304 305 305
291 291 291 290 290 291 291 291 291 292 293 295 297 299 300 301 301 302 302 302 301 302 302 302 303 303 304 304 304 303 303 304 304 303 303 304 303 302 300 300 302 302 303 303 303 303 304 304 305 304 304 305 304 303 301 301 301 301 301 300 300 301 301 303 302 302 304 306 305 307 306 305 309 308 305 305 306 306 304 300 299 299 300 302 304 304 305 305
291 291 291 290 290 291 292 291 291 292 292 293 294 296 298 299 300 301 301 301 301 302 302 302 303 303 303 304 304 303 303 305 305 304 303 304 303 301 300 301 302 303 303 303 303 304 304 304 304 305 306 306 306 305 304 302 301 301 302 300 300 301 301 302 304 303 304 304 304 305 305 305 308 307 304 305 306 307 305 300 299 301 301 302 304 304 304 304
290 290 290 290 291 291 292 292 292 292 292 293 293 293 294 295 297 299 301 301 301 301 302 302 302 303 303 303 303 303 303 303 305 305 304 303 303 302 300 300 302 303 303 303 303 303 305 306 304 304 306 306 307 308 306 303 302 302 302 301 300 300 300 302 304 304 304 303 302 303 304 304 305 306 306 306 306 308 307 303 301 301 302 303 304 304 304 304
290 290 290 290 291 291 291 292 292 292 293 293 293 293 294 294 295 298 300 301 301 301 301 302 302 302 302 302 303 303 303 303 304 304 303 302 303 302 300 300 302 303 303 304 303 303 305 306 304 305 305 305 308 310 306 304 304 303 302 301 300 300 300 301 302 303 303 304 303 303 303 303 303 305 306 307 306 306 306 304 302 301 302 304 304 303 303 303
290 290 290 290 290 290 290 291 291 292 293 293 293 293 294 294 295 296 298 300 301 301 301 302 302 302 303 303 303 303 303 304 303 303 303 302 302 302 301 300 301 302 303 304 303 303 304 304 304 304 304 304 307 308 304 303 304 303 302 302 301 300 300 300 301 301 302 303 304 304 304 303 303 303 304 305 305 304 303 303 302 302 303 303 303 303 303 303
290 290 290 290 289 289 290 290 290 291 291 291 292 292 292 293 294 294 296 297 298 300 301 302 302 302 302 302 303 303 303 304 304 304 303 302 301 303 303 302 301 301 303 303 303 303 303 304 304 304 303 303 304 305 303 303 304 303 302 302 301 301 300 300 300 301 301 301 302 303 304 303 303 303 303 303 304 303 302 303 302 302 302 303 303 302 302 302
289 289 289 290 289 289 290 290 290 290 290 290 291 291 291 292 292 292 293 295 296 297 299 300 301 301 302 302 303 303 303 304 304 304 304 303 302 302 303 304 303 301 301 302 303 303 303 304 304 303 303 303 302 303 303 303 303 303 302 302 302 301 301 300 300 300 300 301 301 301 302 302 303 304 303 302 302 302 303 302 301 301 302 302 302 302 302 303
289 289 289 289 289 289 290 290 289 290 290 290 290 290 291 291 292 292 293 293 294 294 295 296 297 297 299 301 302 303 303 304 304 304 303 303 302 302 302 304 304 302 300 302 303 303 303 304 304 303 303 304 303 303 303 302 302 303 302 302 302 302 302 301 301 301 301 301 301 301 301 301 302 304 303 302 301 302 302 301 300 301 302 301 301 302 302 303
289 289 289 289 289 289 289 289 289 289 289 290 290 290 291 291 292 292 292 292 294 294 295 295 294 294 294 296 299 300 301 302 303 303 303 303 302 301 301 302 303 302 301 301 302 303 303 303 303 303 304 304 304 303 302 302 302 303 303 303 302 301 302 302 302 301 301 301 301 302 302 302 303 305 304 302 302 302 302 300 300 301 302 301 301 301 302 302
Wind_Speed
11 10 11 10 9 9 9 9 9 9 9 9 8 8 7 7 7 7 7 7 6 6 6 8 8 8 9 9 10 10 10 10 11 11 11 10 10 9 9 9 8 7 5 4 3 4 6 5 8 10 9 7 6 4 4 4 5 4 3 3 2 4 4 4 6 4 3 3 2 5 8 5 6 10 15 15 9 12 24 29 27 25 24 23 22 20 21 23
12 12 12 12 11 10 10 9 9 9 10 9 8 9 8 8 8 7 6 6 6 6 7 9 9 10 10 10 11 11 11 11 13 13 12 11 12 11 11 9 8 5 4 3 3 4 6 6 9 11 8 6 5 4 3 4 5 3 3 3 3 5 4 3 4 3 1 2 3 3 5 4 7 11 13 11 12 15 19 26 28 28 26 22 20 20 22 23
13 13 13 13 13 12 11 11 10 9 10 10 9 8 9 9 9 6 5 5 6 7 8 9 10 11 11 11 11 11 11 12 14 15 13 13 12 11 10 8 5 4 4 3 4 6 6 9 11 11 10 6 5 4 3 3 3 1 3 2 5 5 3 2 3 1 3 4 4 3 4 7 9 11 9 7 14 15 11 18 23 27 28 24 24 24 26 27
13 14 14 13 13 13 13 12 10 10 10 10 9 9 9 9 9 8 6 7 7 7 7 8 10 11 11 11 11 11 9 9 13 13 12 14 13 10 7 5 4 3 4 5 6 7 8 11 12 12 9 5 4 5 4 4 2 2 4 4 5 3 2 4 3 2 4 5 5 5 5 8 11 10 8 6 8 10 13 19 20 23 27 28 28 27 28 31
13 15 15 13 12 13 13 13 12 11 10 10 10 10 10 9 10 10 8 8 8 7 6 6 8 9 11 11 11 9 4 4 6 8 9 12 10 6 4 2 3 4 4 6 7 8 9 11 12 11 7 4 4 4 3 4 3 2 3 4 5 3 2 4 2 3 6 7 7 7 5 8 12 12 11 7 6 11 20 25 23 25 29 31 33 32 31 32
15 14 15 14 13 13 14 14 13 12 12 11 11 11 10 9 10 10 9 9 8 7 6 6 7 9 10 10 10 9 6 2 1 5 8 10 6 2 2 2 4 5 6 7 8 9 10 12 12 9 5 3 4 4 3 4 3 2 3 3 3 2 3 6 6 7 10 10 9 7 6 9 11 14 15 13 18 26 31 31 31 32 33 34 35 36 36 34
16 15 16 14 13 14 15 16 13 12 12 11 12 12 11 10 10 10 10 9 9 8 6 6 7 8 9 9 9 9 11 10 5 6 7 5 3 2 2 4 5 7 7 9 10 11 11 12 11 8 5 2 3 3 5 5 3 3 3 3 3 4 5 7 9 12 14 13 14 11 9 10 8 11 12 17 31 36 34 31 32 33 32 33 35 36 36 36
16 17 18 15 14 14 16 17 14 12 13 11 12 13 11 11 10 11 10 8 9 9 7 6 6 7 7 8 8 8 13 15 10 10 9 6 5 3 3 5 6 7 9 10 11 12 11 11 10 8 4 2 4 4 5 3 1 4 3 3 4 7 9 12 15 18 19 19 20 14 11 12 13 14 13 27 39 34 28 29 30 31 31 32 34 34 33 34
16 18 17 14 14 15 17 18 15 13 13 12 13 13 12 12 11 11 10 9 9 9 8 6 5 6 6 8 6 5 10 12 11 12 11 9 7 4 5 5 6 8 9 10 10 12 11 9 10 8 4 3 5 3 5 3 1 4 4 4 6 10 13 16 17 21 20 20 20 12 10 14 16 12 15 35 36 23 22 26 26 27 30 30 30 32 32 33
15 17 17 15 14 16 18 18 16 14 13 13 13 12 12 13 12 11 10 9 9 9 8 7 6 5 7 8 6 4 7 6 6 10 10 10 8 6 6 6 7 9 9 10 9 10 10 8 9 9 6 5 5 3 5 4 1 1 3 7 9 11 15 15 15 22 20 18 18 11 9 13 13 3 10 31 24 15 21 22 23 25 28 30 29 31 31 33
14 15 16 15 13 15 18 18 17 14 14 14 14 13 12 12 13 12 10 9 9 8 7 7 6 6 9 10 10 7 7 5 5 6 7 7 6 5 5 6 8 9 10 9 9 9 8 7 9 9 4 3 4 2 2 1 1 3 7 9 10 10 15 14 13 19 13 8 11 8 10 11 7 6 20 31 18 15 23 22 24 26 28 30 30 32 32 34
14 14 15 15 13 15 18 20 19 16 16 15 14 14 12 12 13 12 11 10 9 8 6 6 6 8 9 12 17 14 9 8 7 5 6 6 5 5 5 6 8 9 9 7 7 8 7 7 10 8 3 5 4 1 0 1 2 4 5 5 8 9 10 11 8 7 3 2 5 5 11 9 9 14 31 30 18 20 24 26 28 27 29 30 30 32 32 36
14 13 14 15 14 16 18 19 20 19 18 16 15 14 13 13 13 12 11 10 10 7 6 5 7 9 8 10 15 14 13 15 11 9 8 7 6 6 5 6 8 8 7 6 4 6 7 6 8 7 5 6 3 1 1 2 2 3 2 1 5 7 6 6 1 3 3 1 1 4 6 8 9 21 30 20 15 20 23 27 28 27 29 30 31 34 37 41
14 14 14 15 16 17 18 18 20 20 19 18 17 15 14 14 13 12 11 11 9 6 5 5 6 7 8 11 10 10 15 18 16 14 12 11 9 7 7 6 8 8 7 6 4 5 7 6 7 7 5 4 3 2 2 4 3 1 1 0 3 2 5 7 2 6 4 2 4 7 2 11 9 16 22 17 15 18 22 27 27 28 31 33 36 39 42 44
15 15 15 15 17 17 18 18 18 19 19 20 20 17 15 14 14 12 10 10 7 4 6 5 6 6 8 13 12 10 14 17 18 17 14 13 11 9 9 8 9 9 8 7 5 6 7 6 6 5 4 3 3 3 3 3 3 2 1 3 2 2 5 9 3 7 4 2 7 7 2 13 15 11 14 15 15 16 20 27 29 32 35 37 39 40 41 41
16 16 16 16 17 17 18 18 18 18 18 20 21 19 17 16 14 11 9 8 6 5 6 4 5 6 5 9 10 11 16 18 17 16 15 14 11 9 9 9 9 9 8 7 6 7 8 7 6 5 4 3 3 4 3 3 4 3 1 3 2 3 3 6 4 3 2 2 5 5 3 10 12 6 7 10 13 17 22 29 34 35 36 37 38 38 39 38
17 17 17 17 18 18 18 18 19 19 18 19 20 19 19 17 14 11 7 7 7 7 7 4 1 5 8 9 8 11 18 20 16 15 15 14 12 11 11 10 10 10 8 8 7 8 8 6 6 3 3 2 2 4 3 2 4 2 1 3 3 3 2 3 4 3 2 2 3 6 6 14 18 14 20 23 19 21 25 29 35 36 36 36 36 36 36 35
18 18 18 18 18 19 19 19 20 19 18 18 19 20 19 14 11 8 7 7 6 4 7 7 4 1 10 15 13 11 13 16 16 15 15 14 13 12 11 9 10 11 9 7 6 7 6 4 4 2 2 1 2 5 3 6 5 4 4 3 3 3 4 5 4 3 3 1 4 5 8 19 24 20 29 36 25 20 27 30 33 36 36 35 33 33 32 31
20 19 19 19 19 19 19 19 19 19 18 19 19 19 15 10 8 6 7 8 9 6 3 11 14 4 3 9 13 12 9 11 15 16 16 16 14 13 10 8 10 12 9 5 3 6 7 4 4 2 2 5 7 7 8 7 6 6 6 5 3 4 5 5 5 3 1 2 7 8 10 17 24 19 20 35 31 21 28 32 31 32 32 31 28 28 28 28
24 22 20 19 19 19 19 18 19 18 18 20 22 17 10 6 4 4 6 12 18 14 6 12 22 15 4 3 7 12 9 10 15 17 18 17 16 15 11 10 10 8 5 4 3 4 6 3 3 6 7 9 11 10 7 4 6 6 4 3 3 4 5 4 3 5 1 1 8 8 9 15 22 19 17 31 31 19 22 24 25 27 25 24 24 25 26 26
22 24 24 22 20 19 19 18 18 17 17 20 20 16 10 5 2 3 5 12 20 23 19 16 19 19 13 9 7 10 10 12 16 18 18 19 19 14 12 12 7 3 4 5 4 3 5 5 9 9 7 8 9 9 6 3 4 4 4 3 3 4 7 5 3 4 2 0 6 5 8 17 22 18 17 25 21 15 18 15 17 21 19 20 22 24 24 23
17 20 24 26 24 21 19 18 17 16 17 18 16 15 13 9 8 7 6 10 19 23 25 24 24 25 23 19 14 11 12 11 14 19 20 22 21 15 12 11 5 3 4 4 5 3 2 6 11 7 5 5 3 6 8 5 3 3 3 2 3 4 4 5 1 2 2 1 5 6 8 17 23 18 17 18 13 16 20 16 16 18 18 21 21 21 21 21
17 17 19 25 28 25 20 19 17 16 17 15 14 14 12 10 11 7 6 8 16 22 23 25 29 33 32 26 21 19 17 11 13 21 24 24 23 19 14 10 5 5 5 5 6 5 4 7 9 8 8 6 3 5 7 5 3 3 4 3 4 3 1 4 3 3 3 2 4 7 9 14 18 14 11 12 8 12 18 17 20 21 20 22 20 19 21 20
17 17 17 20 25 27 23 19 16 17 17 13 12 12 9 9 10 6 7 6 9 15 21 24 27 34 36 29 24 25 23 16 15 21 27 29 24 17 13 10 7 5 5 9 9 7 6 6 4 8 9 8 6 5 7 6 3 3 4 6 5 4 4 5 4 4 4 2 2 6 8 9 9 8 7 6 4 8 12 14 18 20 20 21 20 19 19 18
17 17 17 17 20 26 25 19 17 18 17 14 13 11 7 9 8 3 5 5 6 8 11 17 21 26 32 28 22 23 22 18 18 21 28 33 27 14 8 10 8 5 8 9 6 6 9 5 5 9 7 8 7 5 7 8 4 3 5 9 8 5 5 3 3 5 5 4 3 4 5 7 6 8 10 6 6 9 8 7 14 20 19 18 20 20 17 16
21 17 16 15 16 20 23 20 19 19 17 15 11 7 6 7 5 1 1 3 5 4 3 9 12 13 19 23 23 19 10 11 17 21 26 32 29 15 6 7 5 4 8 7 3 4 5 5 6 8 8 9 7 6 6 8 5 2 4 7 7 5 5 2 2 2 1 4 3 3 1 6 7 11 13 6 7 10 9 8 12 18 20 18 19 20 16 15
25 21 17 16 14 14 23 25 20 18 17 12 7 6 6 8 7 2 1 2 5 5 6 6 8 7 10 20 28 19 3 5 13 18 26 31 28 14 6 5 3 3 6 5 2 3 4 7 5 7 8 8 7 6 6 9 7 3 3 5 7 6 6 4 3 2 3 3 3 2 4 4 7 10 9 4 7 11 10 10 10 12 16 17 18 19 17 15
24 24 21 18 14 14 24 30 24 20 18 11 6 8 8 10 9 4 2 3 3 4 5 4 6 7 10 22 29 15 5 10 11 11 24 31 26 11 5 7 5 5 6 6 6 3 2 8 9 9 8 6 6 4 8 11 5 4 3 7 7 6 6 5 4 2 1 3 4 2 3 3 7 8 6 3 6 10 9 9 8 8 11 14 17 18 17 15
21 23 23 21 19 16 21 33 34 26 20 13 8 9 11 12 8 3 1 4 1 2 2 6 6 7 15 22 17 6 6 6 3 8 20 25 23 8 1 6 6 6 4 3 6 2 1 4 6 8 7 6 4 1 8 12 4 4 6 7 6 5 5 4 4 3 2 2 6 5 5 4 6 7 5 1 3 8 8 8 7 8 10 12 14 16 15 15
22 23 23 23 22 17 16 26 38 31 22 16 11 12 15 12 5 2 4 4 1 2 3 6 7 9 17 14 4 1 3 1 3 12 14 14 16 7 3 6 5 4 1 4 2 2 2 1 1 3 4 5 5 3 3 8 7 8 7 6 6 5 4 4 2 4 2 4 7 6 6 3 4 6 5 3 5 6 5 4 7 8 10 11 12 13 13 13
24 23 23 23 22 19 17 20 29 31 26 19 15 18 17 8 2 3 6 1 2 2 3 2 4 11 16 11 4 3 3 2 4 12 9 6 8 6 5 5 3 3 1 4 2 2 3 1 1 2 3 6 7 5 3 4 7 8 5 4 3 3 3 4 4 3 1 6 6 5 3 3 5 7 5 4 6 6 5 5 6 6 10 12 11 11 11 12
26 24 23 24 23 22 21 19 18 25 30 24 21 23 15 4 3 5 4 3 2 2 3 2 3 8 12 6 3 4 3 1 4 8 7 5 6 7 7 6 6 4 4 7 3 2 1 4 2 2 2 7 7 5 4 3 2 4 4 6 4 2 3 3 3 0 3 6 4 2 1 3 7 9 10 13 12 9 7 7 8 8 11 12 11 10 10 11
26 25 24 24 25 26 25 21 18 21 30 29 25 21 8 3 6 8 8 3 1 2 2 4 4 5 9 5 1 4 3 1 4 4 3 5 5 7 7 6 5 3 3 7 4 2 2 4 2 1 3 9 11 7 4 2 3 6 6 6 5 2 1 4 4 2 4 4 3 0 1 3 6 7 13 18 18 14 11 13 16 15 14 12 10 11 10 10
25 26 27 26 26 28 27 22 18 20 29 33 25 13 6 6 7 12 15 9 1 1 2 3 6 6 7 4 2 6 4 1 6 5 3 5 5 6 8 9 8 2 3 4 4 6 5 5 7 8 4 11 14 8 6 6 7 6 4 5 5 5 5 5 4 3 4 3 2 2 1 4 5 3 7 10 12 12 13 16 18 18 17 13 11 12 12 12
26 25 27 28 28 28 27 23 17 20 30 34 19 7 10 8 6 9 12 8 3 1 2 3 8 7 6 3 2 7 4 2 6 5 4 7 7 7 8 10 12 7 4 4 2 4 7 6 5 4 3 12 13 6 6 7 5 3 2 4 3 4 5 2 3 5 3 2 3 2 4 5 5 8 11 9 10 10 12 14 14 16 17 14 14 17 16 15
29 28 27 28 29 26 25 22 16 20 34 30 9 7 11 8 8 8 6 7 7 6 6 4 5 5 4 3 3 7 4 2 6 5 4 6 6 7 8 8 13 13 9 7 3 2 4 3 3 2 2 6 8 5 5 5 4 3 3 4 4 3 5 3 2 1 4 2 4 3 5 5 3 9 11 7 9 9 8 10 11 14 16 15 18 21 19 17
30 29 28 30 28 25 24 22 17 22 36 25 6 8 9 8 12 8 5 7 9 11 9 4 5 6 6 5 5 9 5 2 6 5 4 5 5 9 12 8 11 18 16 8 2 3 5 1 2 1 1 2 2 4 2 1 4 6 4 4 3 2 3 3 1 3 3 3 5 3 7 4 1 5 6 5 6 6 6 7 7 9 11 15 20 23 21 18
28 29 32 30 23 19 20 20 18 26 32 18 9 12 9 10 13 9 6 8 9 12 9 6 7 7 8 7 5 9 8 4 7 7 5 5 5 9 14 9 10 21 22 11 2 2 4 2 2 0 2 2 2 3 1 2 2 4 3 3 3 3 2 2 3 2 2 3 5 3 5 4 5 5 3 3 5 6 6 6 6 8 10 14 21 23 22 19
27 26 24 19 13 14 14 14 20 31 25 10 9 13 10 12 17 17 14 10 7 10 10 9 8 6 8 9 5 8 11 9 10 8 5 6 5 7 14 11 9 16 22 17 6 1 2 3 3 1 1 0 2 3 6 4 1 2 1 0 1 2 4 3 3 3 3 3 4 4 3 4 7 7 6 8 9 8 6 6 8 9 12 18 22 24 24 21
26 18 15 18 17 15 16 16 22 25 14 8 11 11 10 12 17 24 25 16 8 9 10 10 9 6 7 9 5 6 10 11 10 8 6 7 6 5 10 12 7 10 20 20 9 0 1 4 3 1 1 2 2 5 10 11 8 5 4 4 3 2 2 1 1 2 4 3 3 3 5 5 5 5 8 10 9 9 9 9 9 10 15 22 25 25 25 23
24 11 13 20 15 11 16 16 16 13 7 10 13 11 12 11 11 18 27 25 15 10 10 11 11 10 7 8 7 5 7 8 9 9 6 7 8 5 9 15 10 10 14 12 10 6 3 3 4 3 3 4 3 4 7 10 9 7 7 7 8 6 4 2 3 1 3 3 4 3 6 7 4 4 7 9 8 8 10 10 9 11 17 23 25 25 24 23
17 9 15 18 12 15 19 11 8 10 9 10 11 11 13 12 9 11 16 21 17 11 10 10 12 13 10 10 10 8 9 7 9 10 6 10 13 8 10 18 17 17 15 11 13 12 4 3 3 3 3 4 3 2 3 5 3 3 4 4 4 4 4 5 5 4 2 2 2 3 4 6 4 6 7 8 8 8 10 10 8 12 19 23 24 24 23 22
14 17 26 26 22 24 16 6 8 10 8 11 15 16 16 12 9 10 10 14 13 10 9 7 8 12 11 9 9 9 10 8 10 13 9 10 14 12 13 20 20 17 12 7 8 8 4 2 2 0 2 2 3 2 1 1 2 2 4 4 5 6 5 3 3 3 3 4 3 2 5 6 3 4 4 5 6 6 9 13 12 13 18 23 24 23 22 20
18 23 29 29 26 20 8 3 8 8 7 12 15 16 19 15 12 12 11 10 11 10 10 10 8 9 9 6 7 10 13 10 10 14 13 9 9 12 18 26 24 16 11 9 10 12 9 5 4 2 1 2 2 3 2 3 4 5 5 7 9 10 5 1 0 3 2 7 9 5 8 6 3 5 3 1 3 5 7 12 15 14 17 23 25 23 20 17
16 16 18 20 20 17 14 10 9 7 9 13 13 15 17 14 13 17 15 12 12 12 11 12 12 11 9 8 7 9 15 14 10 12 13 9 4 4 17 30 27 17 15 15 15 16 11 7 7 8 8 9 7 6 6 6 5 3 6 11 14 12 11 6 1 2 7 8 11 10 11 5 2 5 4 2 3 5 6 8 11 13 17 21 23 20 14 12
10 7 6 7 10 15 20 21 16 8 8 11 10 12 14 12 12 18 18 14 14 14 11 10 13 13 11 11 10 9 12 15 11 7 8 10 5 1 13 27 26 22 21 17 16 13 5 4 12 14 15 15 11 6 6 11 10 9 12 16 17 16 16 9 3 6 8 3 7 14 13 10 7 4 4 5 5 6 7 6 7 11 14 19 22 18 11 11
9 4 4 4 7 10 13 15 13 8 9 11 7 7 14 13 10 13 15 13 14 16 11 9 13 14 12 14 13 10 12 13 12 9 7 9 7 1 7 17 20 24 23 15 15 12 2 4 15 18 20 16 6 4 10 16 16 18 17 18 19 18 17 14 13 12 6 4 12 13 10 16 16 8 7 9 8 9 8 7 9 14 16 19 22 18 14 12
10 7 10 9 5 4 6 9 8 7 11 12 6 6 13 14 10 10 10 9 11 14 10 9 15 17 16 17 14 11 12 12 13 13 9 7 6 1 2 5 10 17 15 10 12 9 2 7 13 14 19 17 4 4 10 14 14 15 17 20 20 20 20 21 24 20 10 10 18 9 13 21 20 11 12 13 11 10 8 11 16 18 18 21 21 20 19 18
12 11 14 14 8 7 11 14 10 8 11 11 7 8 12 12 12 10 5 6 9 10 10 11 16 19 20 20 16 14 15 13 13 14 11 9 7 5 4 3 6 9 9 8 8 5 3 7 10 9 14 18 11 7 9 11 9 10 16 19 19 22 25 26 27 24 18 20 22 9 12 23 17 11 15 17 17 16 11 14 19 19 21 24 23 23 25 25
17 13 12 12 9 10 14 14 10 7 9 10 8 9 11 11 13 13 7 6 8 7 8 12 12 13 18 21 20 19 18 17 17 16 14 11 8 6 6 4 5 6 7 7 5 4 5 7 6 5 7 14 14 10 9 10 10 9 11 14 17 21 24 26 25 20 17 23 24 14 17 24 13 8 11 14 18 20 14 14 18 23 26 26 25 28 30 30
26 25 21 13 7 9 11 9 7 6 6 8 8 8 10 11 12 12 10 11 11 11 12 11 10 10 11 16 20 21 20 20 21 19 19 17 15 14 11 6 8 10 9 8 6 5 7 4 1 4 6 11 11 10 10 8 6 7 10 15 19 20 20 21 19 16 17 21 19 12 17 23 11 6 8 11 13 16 13 11 16 26 30 26 25 30 31 31
27 27 26 18 9 10 10 6 6 7 6 7 9 9 10 11 10 9 10 10 12 14 12 9 10 10 11 13 16 17 18 21 24 28 28 25 24 22 16 12 15 15 12 10 7 6 8 6 3 5 8 11 9 9 9 6 3 7 14 18 20 20 20 18 14 16 19 18 13 12 19 20 6 6 11 13 14 16 16 16 21 28 30 27 28 32 33 33
Wind_Direction
327 330 331 326 323 322 318 318 318 314 311 305 305 304 298 294 287 286 284 275 269 267 263 253 247 247 247 250 251 251 251 249 250 245 239 237 236 234 236 242 243 251 260 259 255 246 244 214 189 183 170 158 141 132 137 143 145 141 118 118 201 196 190 196 192 200 191 242 282 356 6 8 310 321 329 322 295 288 303 299 292 291 285 283 288 293 298 297
325 326 328 327 323 321 317 313 313 313 309 307 304 300 302 300 287 275 269 260 255 259 254 245 240 242 246 252 254 255 255 255 255 246 237 236 233 230 231 233 236 247 255 256 257 240 222 199 185 172 163 151 146 151 144 146 145 136 119 142 220 201 201 206 188 219 265 264 273 340 354 338 309 314 330 325 297 310 314 300 298 298 293 290 295 299 301 299
321 319 319 322 324 323 319 314 310 308 306 304 300 298 302 302 294 284 280 271 255 252 249 239 233 236 240 246 250 254 256 261 262 249 234 232 228 224 225 228 232 238 240 238 229 225 201 185 180 168 159 144 153 171 160 153 154 159 129 176 237 212 237 233 171 243 278 290 301 323 321 304 301 304 318 315 299 306 292 285 292 295 297 296 294 296 300 300
316 313 312 312 317 320 318 315 311 310 309 302 301 303 300 300 301 293 290 293 276 258 249 236 225 227 233 239 247 251 261 279 271 252 230 223 220 218 221 227 230 229 223 215 210 204 184 177 174 165 156 140 149 162 166 169 176 192 152 192 224 198 263 225 191 304 296 305 304 310 319 303 306 306 295 289 302 296 269 275 277 281 296 299 294 294 296 297
316 315 316 313 313 315 314 314 311 311 310 305 304 302 299 300 300 295 290 292 287 278 269 245 222 221 226 231 239 237 244 314 273 233 211 203 204 210 216 231 232 229 216 207 202 189 176 172 168 161 152 147 151 145 174 178 159 202 205 220 215 174 249 249 263 322 314 311 303 313 322 302 310 303 279 262 251 261 270 281 283 281 289 292 292 292 291 290
316 317 318 318 314 312 311 311 312 310 308 310 308 302 301 299 295 295 294 293 289 287 288 261 224 217 220 221 229 218 199 230 210 166 168 172 183 203 211 234 232 232 223 211 200 183 174 169 167 161 143 141 163 153 168 176 160 212 262 266 240 208 240 276 300 305 310 311 302 306 298 298 310 299 284 256 247 265 276 282 284 284 285 287 287 286 286 284
314 313 312 313 309 309 307 305 308 310 309 310 309 304 301 301 299 297 295 297 293 287 287 268 232 219 219 218 222 218 221 239 233 183 177 176 225 259 235 239 232 231 225 215 203 188 179 173 168 154 128 113 170 166 154 167 156 164 256 287 284 292 268 280 300 296 300 298 291 294 286 286 284 287 294 269 265 274 280 284 283 284 285 284 283 282 281 280
312 310 308 308 304 305 305 306 310 310 308 308 307 303 299 302 300 297 294 295 296 290 288 274 241 226 219 215 220 229 240 245 239 227 237 256 264 263 254 246 234 232 226 218 207 196 191 180 170 156 142 133 158 167 153 167 150 167 232 283 289 301 287 288 295 290 294 292 292 296 275 268 266 274 284 273 275 280 280 284 283 282 282 280 279 278 277 276
305 309 310 310 305 304 305 311 313 307 305 305 304 304 304 303 296 293 290 291 297 291 292 288 260 239 217 211 213 241 252 246 238 239 246 251 251 259 267 256 237 232 229 222 207 202 201 185 178 172 171 153 144 150 151 170 269 192 222 285 289 296 295 295 292 287 291 290 293 295 272 271 269 275 278 269 272 280 281 280 278 278 277 276 275 273 273 274
301 303 308 310 305 307 309 312 314 311 307 305 304 302 303 303 296 291 287 290 294 289 295 293 274 249 224 214 201 230 254 244 235 236 238 244 246 255 263 257 241 232 230 226 208 203 205 193 183 169 158 149 139 131 143 162 250 235 296 303 288 294 298 295 285 282 287 288 287 274 265 271 259 236 268 269 272 277 277 276 276 276 274 274 273 273 273 274
308 303 308 313 309 309 311 312 314 311 308 309 307 299 297 299 295 290 285 285 286 287 292 291 286 257 232 218 204 216 244 239 238 230 225 236 238 249 255 246 238 232 230 228 213 204 203 196 180 165 152 148 140 127 149 177 317 337 343 319 300 311 306 288 272 278 279 283 286 274 275 264 220 190 242 258 272 274 273 276 275 274 273 274 273 274 275 276
315 312 313 317 315 310 308 309 309 307 306 309 307 301 297 295 292 290 287 283 281 282 283 289 293 264 237 231 228 229 240 236 234 227 218 225 231 249 254 239 232 233 233 228 222 208 194 190 182 175 159 151 150 94 107 324 338 335 1 330 307 336 316 281 258 263 225 243 305 333 301 263 173 213 239 248 265 268 269 272 272 271 272 274 274 276 278 279
312 311 310 312 313 310 308 308 308 309 308 307 306 303 298 292 290 289 287 282 275 273 279 285 287 270 244 243 242 236 239 239 235 231 228 228 235 249 250 232 225 229 226 211 221 208 185 185 188 177 143 139 141 100 50 11 12 328 6 57 321 346 318 291 267 173 141 191 311 54 311 270 194 222 239 248 260 263 267 268 271 274 274 276 277 279 281 283
307 307 306 306 309 310 310 309 310 313 316 313 305 298 296 292 288 286 285 283 273 269 284 280 281 272 240 242 248 236 236 238 239 236 233 233 235 245 246 230 220 222 216 202 204 195 180 174 182 173 137 133 128 102 12 11 37 322 300 29 2 342 278 309 33 134 134 180 158 111 253 270 250 231 240 249 254 260 266 269 274 277 278 280 281 283 285 286
302 303 302 302 305 308 309 309 309 312 316 317 313 304 299 294 288 282 278 276 267 268 280 264 250 246 248 256 252 240 234 233 237 236 234 237 238 244 240 225 215 211 204 200 193 176 171 165 168 156 124 136 117 81 11 1 16 30 263 300 346 193 262 311 321 151 160 195 165 138 202 270 276 255 240 243 249 257 266 275 280 281 282 284 284 285 286 288
303 301 299 298 299 301 304 307 308 306 306 313 320 319 315 307 291 276 273 272 264 262 258 251 235 220 253 274 252 234 231 227 232 232 231 233 230 231 227 216 208 201 194 190 181 163 163 154 141 128 117 124 116 89 41 0 336 359 188 254 255 198 271 321 314 175 157 117 177 202 231 273 278 263 236 239 256 272 277 281 284 284 285 285 286 286 286 289
304 303 300 299 297 297 300 302 305 304 300 305 315 324 324 310 288 270 262 260 259 243 210 156 128 223 247 262 242 230 231 228 225 220 224 225 217 217 216 206 193 188 182 173 168 156 156 148 134 128 93 82 112 102 63 278 270 304 172 244 247 210 223 292 315 354 37 91 220 242 247 260 266 274 279 277 278 282 280 281 284 287 286 285 285 286 287 289
298 300 301 302 301 300 300 303 306 304 301 300 309 324 323 304 283 268 247 240 238 205 181 170 138 265 256 243 231 233 237 230 221 213 214 213 207 208 208 203 187 175 163 154 162 152 144 130 122 113 29 66 144 127 172 226 211 190 181 209 256 233 223 245 267 332 15 317 251 251 256 263 268 277 284 285 286 284 280 280 283 283 283 284 285 287 289 290
288 293 297 299 302 303 303 305 307 304 301 298 306 322 320 293 281 273 238 206 188 168 179 195 186 173 271 237 227 232 241 223 213 207 205 204 195 191 192 187 176 166 150 139 172 163 143 96 89 143 213 189 191 182 195 204 163 163 174 169 192 225 243 236 244 275 33 293 264 246 252 267 275 280 285 287 290 284 278 280 279 277 278 283 288 290 292 293
278 283 287 293 296 298 301 304 304 304 300 297 307 322 316 284 284 277 228 212 213 216 220 198 199 209 250 289 228 220 218 198 203 203 199 199 189 180 176 165 158 157 156 150 177 180 155 149 192 206 208 191 197 200 188 150 126 130 135 164 202 225 261 248 248 290 54 266 265 249 262 272 275 279 280 284 289 285 274 273 271 271 276 283 290 293 294 294
276 277 279 286 289 290 293 297 300 301 299 298 307 316 301 270 268 292 260 250 247 241 241 232 221 227 242 264 251 217 199 186 199 202 195 195 187 176 175 164 146 158 198 156 127 131 148 196 227 218 202 186 195 199 181 133 106 109 138 198 256 236 256 251 212 282 10 294 268 274 290 280 276 280 278 279 284 276 266 261 261 267 278 286 289 291 294 296
283 277 276 278 281 285 285 288 293 293 294 296 299 302 297 273 250 270 290 281 273 260 249 245 241 240 238 243 250 228 199 185 196 199 191 188 185 184 177 164 158 176 179 140 106 110 184 233 239 217 163 143 163 181 185 187 140 116 140 161 265 242 270 290 278 317 347 220 277 304 303 284 281 281 276 272 261 258 262 256 262 272 278 281 284 290 294 295
290 288 278 271 274 277 278 281 282 281 285 290 292 299 304 271 240 262 293 281 281 270 253 242 238 236 231 230 234 218 199 193 197 195 189 184 185 190 177 159 174 167 155 171 161 162 200 246 241 196 152 133 123 156 161 164 162 163 152 161 244 232 244 287 295 323 295 224 273 303 300 283 285 289 281 270 248 259 271 270 272 272 270 274 279 285 287 290
293 294 284 274 271 267 271 275 268 269 276 279 288 295 292 250 233 270 294 273 280 268 255 247 239 232 227 225 223 210 203 207 205 195 190 184 180 184 183 172 169 162 179 194 189 195 221 253 216 160 161 159 141 153 154 156 210 222 190 198 227 218 208 240 287 318 315 330 311 316 308 283 291 311 295 290 300 285 285 285 277 267 262 268 272 272 274 281
294 295 288 282 273 264 264 259 248 257 266 267 280 287 269 238 227 284 309 286 278 267 256 243 233 232 227 220 212 201 201 216 218 203 193 189 182 171 180 184 172 181 193 187 194 231 249 249 139 134 163 167 149 172 179 172 198 252 224 214 214 198 198 234 336 346 355 340 317 7 337 288 307 306 275 285 319 296 291 295 278 269 262 261 263 262 265 275
289 293 291 287 283 269 252 238 238 249 256 260 268 270 253 218 191 209 340 312 275 238 192 206 209 218 214 202 189 177 192 226 217 207 198 194 191 174 160 181 173 191 179 163 191 240 237 205 137 140 167 168 169 202 204 170 158 250 242 205 191 147 132 138 32 9 315 271 261 93 115 273 305 294 274 287 315 293 291 290 273 269 262 254 252 251 259 274
281 285 291 287 289 270 240 231 234 237 242 257 249 223 218 179 154 130 97 305 266 178 144 176 179 177 191 185 174 161 165 181 173 196 195 191 194 183 172 184 151 185 163 136 220 247 185 178 147 148 163 168 186 211 201 162 145 229 235 136 139 128 136 150 107 138 235 283 287 143 161 262 288 279 273 301 309 299 297 287 274 267 258 249 246 244 254 273
284 283 287 280 279 270 245 237 235 232 239 251 226 206 193 166 159 131 114 276 271 133 131 153 154 156 158 169 171 158 117 138 138 187 187 184 192 187 194 203 165 178 173 157 212 272 137 179 181 167 167 183 196 195 172 157 150 227 180 114 124 130 136 131 105 138 312 349 294 218 156 251 268 269 285 310 291 291 286 276 269 265 257 251 250 248 254 270
297 291 287 276 270 272 259 243 237 240 244 235 210 196 176 161 154 111 172 253 227 87 141 150 145 142 142 155 170 141 108 126 100 170 173 181 191 186 179 199 170 169 195 191 209 262 53 187 191 167 176 197 189 148 168 168 172 169 130 87 76 82 86 86 102 118 49 327 255 218 178 224 269 273 287 306 253 260 259 263 263 261 263 261 259 256 256 264
304 297 291 286 274 272 279 251 237 239 240 223 204 179 162 153 129 113 229 238 130 72 101 142 156 146 142 150 175 69 110 36 82 142 159 178 185 180 127 160 148 143 244 331 233 236 339 51 135 174 193 174 123 71 159 167 150 126 103 69 54 43 53 51 54 85 60 273 258 235 192 191 284 274 245 206 219 218 206 245 267 264 267 265 260 260 257 257
306 298 291 292 282 274 285 266 241 233 227 217 196 170 155 142 111 197 215 280 30 115 112 139 153 144 153 162 176 152 103 14 130 147 157 169 172 172 145 148 127 108 292 292 265 304 343 96 221 237 186 135 103 65 42 93 125 117 92 97 82 353 16 22 358 51 160 251 267 270 211 171 241 258 246 241 255 233 191 205 228 242 266 266 254 255 258 256
305 300 290 286 283 277 274 274 264 238 223 214 190 167 152 145 216 223 234 10 4 190 150 155 155 158 169 162 136 154 120 75 178 169 167 162 178 190 185 187 166 135 234 231 221 341 261 217 245 307 210 167 131 89 55 28 87 111 105 119 118 319 346 335 298 128 222 250 288 291 179 206 241 256 265 264 262 247 220 213 214 229 258 260 243 242 252 251
301 298 292 281 278 277 269 269 276 251 225 207 184 167 159 206 196 203 222 247 250 199 110 133 148 157 161 144 138 168 134 129 173 171 174 166 187 209 220 227 191 153 197 192 176 180 241 284 232 208 251 190 169 153 154 183 179 160 151 146 145 151 199 255 250 258 255 259 310 275 171 258 260 265 257 251 252 247 236 240 243 244 247 247 238 237 246 247
298 296 292 284 276 272 272 271 272 259 227 198 178 171 204 223 187 191 210 222 224 53 43 123 132 136 161 175 211 172 146 201 175 157 160 169 190 215 219 231 222 183 101 156 180 179 205 272 204 185 188 178 181 183 156 142 161 178 156 143 154 154 176 216 205 212 246 263 296 280 222 210 205 263 261 246 258 262 253 251 249 246 240 238 237 231 233 238
297 294 289 288 280 271 275 273 269 259 222 191 171 186 207 207 200 205 212 206 181 56 24 128 131 141 193 214 215 192 186 199 176 165 178 188 202 206 202 216 210 185 143 181 203 168 204 257 230 198 156 167 179 178 126 117 148 198 115 125 196 190 159 178 197 177 168 283 280 240 238 221 211 280 284 264 262 261 255 254 245 237 231 225 224 221 223 230
299 295 290 289 283 277 279 272 268 247 212 189 175 220 203 202 206 206 201 176 169 145 114 120 137 151 207 196 188 209 210 146 163 175 210 207 222 217 207 213 201 194 189 182 170 155 191 274 312 7 47 168 176 158 145 151 161 165 155 171 202 174 125 121 252 20 76 259 259 194 238 283 307 287 287 278 267 253 235 238 233 225 217 207 211 216 217 223
302 300 295 290 284 284 280 268 268 238 209 194 209 216 198 221 218 206 184 161 154 147 140 173 186 170 191 198 193 193 186 134 166 181 193 190 233 220 208 217 200 199 206 197 204 195 165 210 300 110 111 221 150 102 98 43 124 139 186 204 150 104 85 108 224 349 51 252 271 217 233 271 293 265 305 346 306 266 222 217 223 219 204 197 206 212 215 218
301 302 299 294 291 292 279 265 260 234 214 206 226 214 204 221 220 216 183 147 139 149 165 215 194 165 185 198 191 179 175 170 176 185 181 181 240 208 190 204 204 202 208 207 248 250 159 174 286 157 180 243 53 111 137 351 93 138 182 202 130 147 192 130 168 211 166 240 279 271 248 235 202 227 283 299 259 246 227 205 203 209 201 202 207 209 213 214
299 300 297 295 303 303 290 274 247 228 219 217 220 214 214 219 224 225 200 163 153 166 183 211 197 182 196 191 160 160 181 190 175 179 190 189 226 197 176 188 205 201 199 195 207 272 166 210 244 248 219 136 49 192 190 184 179 61 71 277 37 151 182 167 164 172 165 210 265 297 302 232 218 213 199 216 224 214 208 196 199 209 204 205 207 207 209 210
298 294 278 285 298 294 286 273 239 222 220 234 228 222 222 220 227 228 212 193 185 187 195 204 194 192 198 190 169 156 189 201 180 182 205 191 207 218 182 181 190 188 187 193 208 236 86 229 208 143 275 201 187 213 193 181 179 174 169 185 200 183 155 189 214 130 134 173 219 277 283 253 235 205 192 211 220 205 199 197 203 214 209 208 208 207 208 208
295 285 273 288 296 284 283 272 236 222 230 233 230 229 230 228 228 229 219 212 215 216 208 201 195 198 191 186 197 178 182 200 189 191 211 198 209 236 192 183 174 157 164 185 217 214 200 213 162 147 216 211 217 229 199 193 190 184 191 194 190 182 133 138 241 228 132 184 188 196 266 268 237 197 202 213 218 212 205 201 207 214 212 211 210 208 208 208
288 262 271 280 276 283 294 290 244 241 241 238 245 245 248 251 237 224 216 212 221 230 221 210 203 206 200 191 198 182 169 189 195 196 214 210 213 225 194 183 169 154 155 179 207 201 163 100 131 166 215 215 242 266 193 209 202 170 216 209 181 193 153 151 216 220 162 231 183 145 275 273 215 196 211 216 217 214 207 203 210 218 216 213 210 209 210 208
268 264 276 279 279 283 287 281 260 256 249 265 273 262 260 266 249 232 216 207 215 224 226 223 204 210 214 194 183 174 172 191 197 196 209 218 222 226 190 172 162 156 160 180 198 183 147 131 163 208 336 326 299 315 61 160 171 199 229 180 171 221 210 162 198 171 168 223 169 136 262 260 253 249 238 226 215 213 214 207 207 218 216 211 209 209 209 210
269 275 282 287 286 275 252 231 265 262 264 273 276 268 260 258 251 245 233 210 205 208 222 229 210 213 218 181 166 178 183 194 202 200 206 215 225 216 183 170 166 167 180 188 177 170 176 187 164 159 287 320 328 303 254 201 186 207 221 192 200 218 204 187 177 98 226 213 164 172 248 243 283 310 336 10 195 206 225 213 209 216 210 205 206 203 204 214
281 277 277 283 278 253 228 234 248 254 268 267 272 275 267 264 259 251 245 234 221 212 216 226 217 214 214 188 179 188 191 201 210 202 207 217 226 198 181 178 175 180 200 198 177 170 176 182 175 182 208 213 210 220 216 189 169 192 210 203 207 205 195 202 145 158 235 207 164 200 241 241 306 319 332 333 203 212 234 221 214 213 204 198 196 193 203 231
273 270 264 279 266 237 231 239 242 248 262 259 268 274 267 274 278 264 256 248 238 231 229 230 219 216 218 207 202 202 202 212 216 196 198 208 212 212 188 185 184 192 201 192 174 173 172 191 196 202 215 215 211 203 142 126 150 200 204 199 202 201 199 194 143 205 218 176 195 221 233 250 257 244 251 246 213 214 225 216 211 210 202 190 187 197 230 245
255 256 241 248 258 244 237 238 235 235 246 249 256 267 262 265 278 276 263 247 233 229 233 236 219 214 215 212 217 216 205 213 219 208 199 196 196 243 195 189 194 200 197 184 176 176 155 216 209 218 228 226 207 169 152 144 173 202 197 193 199 197 194 196 214 220 156 129 246 227 204 243 245 206 211 233 221 221 221 210 212 213 209 198 198 219 246 240
252 252 247 244 248 251 248 240 235 246 259 260 257 269 275 275 278 277 268 262 244 224 222 233 223 220 215 208 216 223 211 214 218 211 209 197 180 148 161 193 212 206 193 183 185 178 167 223 216 222 235 238 216 153 179 174 183 196 191 191 193 191 193 203 219 221 173 201 245 203 171 232 241 211 215 223 217 221 208 208 221 221 219 217 220 237 252 247
256 257 259 255 241 232 250 256 259 267 270 273 272 267 276 281 280 278 282 298 278 244 232 233 223 223 221 212 213 220 214 215 216 211 206 197 184 168 160 188 222 210 190 185 194 180 175 227 228 220 236 244 232 194 194 191 186 194 196 193 188 191 199 207 219 221 208 225 243 219 215 245 241 208 220 225 229 237 223 216 226 227 227 230 236 247 254 252
253 254 260 258 245 242 252 258 262 265 264 265 264 263 269 273 275 280 277 266 285 295 275 262 255 245 233 223 221 223 220 218 220 217 201 192 192 183 182 187 174 174 184 192 199 192 191 223 233 198 232 251 237 215 205 199 197 201 199 198 197 198 204 212 219 218 213 233 242 241 257 261 244 195 217 228 236 243 237 224 231 237 237 237 242 250 253 253
260 262 262 260 256 251 249 246 245 251 257 255 253 260 264 262 265 278 282 267 266 277 276 279 302 309 281 256 241 233 231 228 226 220 204 197 200 193 190 187 162 160 179 191 188 185 193 217 209 153 221 247 229 204 200 201 209 221 215 208 205 205 211 216 219 212 209 226 237 237 252 257 242 180 214 229 231 238 236 219 228 240 242 238 239 245 249 250
266 265 259 249 245 250 248 246 242 243 248 248 250 258 260 265 272 280 289 277 245 241 265 305 328 332 324 298 273 264 271 272 263 247 226 211 207 201 192 180 174 172 173 179 182 180 185 202 200 174 217 242 225 183 175 166 182 235 232 218 207 210 216 217 221 219 214 217 221 222 237 247 232 167 218 232 229 234 235 224 226 237 242 242 241 243 247 249